Regional Weather Roundup
Issued by NWS Kansas City/Pleasant Hill, MO

Home | Current Version | Previous Version | Text Only | Print | Product List | Glossary On
Versions: 1 2 3 4 5 6 7 8 9 10 11 12 13 14 15 16 17 18 19 20 21 22 23 24 25 26 27 28 29 30 31 32 33 34 35 36 37 38 39 40 41 42 43 44 45 46 47 48 49 50
000
ASUS43 KEAX 301211
RWREAX

WEATHER ROUNDUP FOR EASTERN KANSAS AND NORTHWEST MISSOURI
NATIONAL WEATHER SERVICE KANSAS CITY/PLEASANT HILL MO
700 AM CDT SAT AUG 30 2014

KSZ040-057-103>105-MOZ028-029-037-043-301300-
...KANSAS CITY METROPOLITAN AREA...

CITY           SKY/WX    TMP DP  RH WIND       PRES   REMARKS
K.C. INTL      PTCLDY    67  65  93 SW6       29.91R
6HR MIN TEMP:  66; 6HR MAX TEMP:  71;

K.C. DOWNTOWN  CLEAR     71  67  87 W7        29.90R
6HR MIN TEMP:  71; 6HR MAX TEMP:  73;

LEES SUMMIT    CLEAR     69  66  90 SW7       29.92R
6HR MIN TEMP:  68; 6HR MAX TEMP:  75;

OLATHE - IXD   CLEAR     68  66  93 SW7       29.93R
6HR MIN TEMP:  68; 6HR MAX TEMP:  75;

OLATHE - OJC   CLEAR     68  66  93 SW5       29.92R
6HR MIN TEMP:  68; 6HR MAX TEMP:  75;

LAWRENCE       FOG       67  63  87 CALM      29.92R VSB 1/4

$$

MOZ001>008-011>017-020>025-030>033-038>040-044>046-053-054-301300-
...NORTHERN AND CENTRAL MISSOURI...

CITY           SKY/WX    TMP DP  RH WIND       PRES   REMARKS
ST. JOSEPH     CLEAR     63  62  97 SW3       29.91R
6HR MIN TEMP:  63; 6HR MAX TEMP:  68;

MOSBY          FOG       64  64 100 CALM      29.91R VSB 1/4
WHITEMAN AFB   PTCLDY    71  68  89 SW9       29.92R
6HR MIN TEMP:  69; 6HR MAX TEMP:  72;

CLINTON        PTCLDY    72  70  94 S6        29.93R
SEDALIA        PTCLDY    72  67  84 SW9       29.93R
6HR MIN TEMP:  72; 6HR MAX TEMP:  76;

WARSAW         NOT AVBL
MARSHALL       CLEAR     72  70  94 SW5       29.92R
CHILLICOTHE      N/A     69  67  93 CALM      29.91R
6HR MIN TEMP:  68; 6HR MAX TEMP:  73;

MOBERLY        MOCLDY    72  66  83 S6        29.91
KIRKSVILLE     CLEAR     68  67  96 SW6       29.90R
6HR MIN TEMP:  68; 6HR MAX TEMP:  73; 6HR PCP:  0.25;


$$

MOZ041-047>049-056>058-063>065-088>090-097-301300-
...EASTERN AND SOUTHERN MISSOURI...

CITY           SKY/WX    TMP DP  RH WIND       PRES   REMARKS
ST. LOUIS INTL MOCLDY    76  68  76 S12       29.94R
6HR MIN TEMP:  76; 6HR MAX TEMP:  79;

SPIRIT OF STL  MOCLDY    72  68  87 S5        29.93R
COLUMBIA       PTCLDY    70  68  93 S7        29.93R
JEFFERSON CITY PTCLDY    71  68  90 CALM      29.92R
MEXICO         PTCLDY   N/A N/A N/A S7        29.91R
HANNIBAL       CLEAR     72  68  88 S7        29.90R
ROLLA          CLEAR     69  67  93 S9        29.95R
LEBANON        PTCLDY    70  68  94 S6        29.97F
OSAGE BEACH    PTCLDY    70  66  88 S6        29.94S
SPRINGFIELD    CLOUDY    71  67  87 S10       29.97R
BRANSON        CLOUDY    72  70  94 CALM      30.00R
NEVADA         PTCLDY    70  68  94 S5        29.95R
JOPLIN         PTCLDY    72  69  90 S10       29.96R
WEST PLAINS    MOCLDY    71  67  87 S5        30.01R

$$

IAZ060-094-KSZ022-034>040-054-083-096-NEZ052-066-093-301300-
...KANSAS...SOUTHEAST NEBRASKA AND IOWA...

CITY           SKY/WX    TMP DP  RH WIND       PRES   REMARKS
TOPEKA         CLEAR     68  67  96 W5        29.93R
6HR MIN TEMP:  68; 6HR MAX TEMP:  74;

MANHATTAN      CLEAR     65  63  93 W3        29.94R
EMPORIA        CLEAR     65  64  97 CALM      29.94R FOG
CHANUTE        CLEAR     70  68  93 S5        29.94R
WICHITA        PTCLDY    65  63  93 CALM      29.94R FOG
OMAHA          CLEAR     64  61  90 NW3       29.92R
LINCOLN        CLEAR     64  60  87 NW7       29.95R
FALLS CITY     CLEAR     66  65  96 W6        29.91R
LAMONI         CLOUDY    66  64  93 W5        29.89S FOG
DES MOINES     MOCLDY    67  64  90 W5        29.86R

$$



USA.gov is the U.S. government's official web portal to all federal, state and local government web resources and services.